{"data":{"norad_id":68831,"intl_designator":"2026-091A","name":"HJS-9A","alt_names":[],"object_type":"PAYLOAD","status":"ACTIVE","operator":null,"country":"PRC","launch_date":"2026-04-24","launch_site_code":"XICLF","launch_vehicle":null,"mission":null,"orbit_class":"UNKNOWN","rcs_meters":null,"size_class":null,"mass_kg":null,"dimensions":null,"purposes":[],"wikipedia_slug":null,"has_3d_model":false,"image_url":null,"decayed_at":null,"tle_current":{"epoch":"2026-05-22T00:21:42.759072Z","epoch_age_seconds":332660,"freshness":"STALE","line1":"1 68831U 26091A   26142.01507823  .00015537  00000+0  73937-3 0  9997","line2":"2 68831  55.0019 136.0532 0010737   0.3490 359.7535 15.19338069  4222","mean_motion":15.19338069,"eccentricity":0.0010737,"inclination_deg":55.0019,"raan_deg":136.0532,"arg_perigee_deg":0.349,"mean_anomaly_deg":359.7535,"bstar":0.00073937,"rev_number":422,"period_min":94.778116166587,"perigee_km":500.44642651244,"apogee_km":515.23337330731,"semimajor_km":6885.9768999099,"source":"CELESTRAK","updated_at":"2026-05-25T13:38:08.124175Z"}}}